Location: Unspecified
(0.0000°N, 0.0000°E)
Time: 02:36:28
(UTC+02:00)

Ariane H10+ - Visible Passes

Search period start: 26 May 2016 00:00
Search period end: 05 June 2016 00:00
Orbit: 285 x 31446 km, 7.1° (Epoch: 24 May)

Date Brightness Start Highest point End Pass type
(mag) Time Alt. Az. Time Alt. Az. Time Alt. Az.
26 May 5.8 04:52:06 34° ESE 04:52:06 34° ESE 05:04:56 10° E visible
26 May 5.0 14:55:32 10° W 16:23:10 26° W 22:50:09 78° WNW visible
28 May 6.6 12:14:46 10° W 20:29:32 79° N 20:41:12 10° E visible
29 May 5.2 06:14:12 38° SW 06:17:45 65° SSE 14:23:25 10° E visible
30 May 6.9 00:09:02 10° W 00:12:12 16° W 00:12:12 16° W visible
31 May 6.8 04:05:18 16° ESE 04:05:18 16° ESE 04:08:25 10° ESE visible
31 May 5.0 13:54:11 10° W 15:33:53 36° W 22:03:13 52° E visible
03 Jun 5.1 05:26:43 57° S 05:26:52 57° SSE 13:21:03 10° E visible
03 Jun 5.9 23:11:25 10° W 23:24:32 38° W 23:24:32 38° W visible
